TimeCDT,TemperatureF,Dew PointF,Humidity,Sea Level PressureIn,VisibilityMPH,Wind Direction,Wind SpeedMPH,Gust SpeedMPH,PrecipitationIn,Events,Conditions,WindDirDegrees,DateUTC
12:15 AM,68.2,52.9,58,29.99,10.0,NW,5.8,-,N/A,,Clear,320,2013-06-18 05:15:00
12:35 AM,67.3,53.4,61,29.99,10.0,WNW,6.9,-,N/A,,Clear,300,2013-06-18 05:35:00
12:55 AM,66.7,54.1,64,29.99,10.0,WNW,4.6,-,N/A,,Clear,300,2013-06-18 05:55:00
1:15 AM,64.8,55.4,72,29.99,10.0,Calm,Calm,-,N/A,,Clear,0,2013-06-18 06:15:00
1:35 AM,64.8,55.6,72,29.99,10.0,West,8.1,-,N/A,,Clear,280,2013-06-18 06:35:00
1:55 AM,64.4,55.4,73,29.98,10.0,WNW,6.9,-,N/A,,Clear,290,2013-06-18 06:55:00
2:15 AM,63.5,55.6,75,29.97,10.0,WNW,5.8,-,N/A,,Clear,290,2013-06-18 07:15:00
2:35 AM,63.5,55.6,75,29.97,10.0,West,6.9,-,N/A,,Clear,280,2013-06-18 07:35:00
2:55 AM,63.5,55.4,75,29.98,10.0,West,6.9,-,N/A,,Clear,270,2013-06-18 07:55:00
3:15 AM,62.6,55.6,78,29.99,10.0,WNW,6.9,-,N/A,,Clear,290,2013-06-18 08:15:00
3:35 AM,62.1,55.4,79,29.98,10.0,WNW,5.8,-,N/A,,Clear,290,2013-06-18 08:35:00
3:55 AM,63.3,54.7,73,29.98,10.0,NW,5.8,-,N/A,,Clear,320,2013-06-18 08:55:00
4:15 AM,64.0,54.3,71,29.98,10.0,NNW,8.1,-,N/A,,Clear,340,2013-06-18 09:15:00
4:35 AM,64.6,54.3,69,29.99,10.0,NW,4.6,-,N/A,,Clear,320,2013-06-18 09:35:00
4:55 AM,65.8,53.4,64,29.99,10.0,NNW,9.2,-,N/A,,Clear,340,2013-06-18 09:55:00
5:15 AM,64.0,54.0,70,30.00,10.0,NW,3.5,-,N/A,,Clear,310,2013-06-18 10:15:00
5:35 AM,63.5,54.3,72,30.00,10.0,North,5.8,-,N/A,,Clear,360,2013-06-18 10:35:00
5:55 AM,64.4,54.7,71,30.00,10.0,NNE,3.5,-,N/A,,Scattered Clouds,20,2013-06-18 10:55:00
6:35 AM,63.5,55.2,74,30.00,10.0,Calm,Calm,-,N/A,,Mostly Cloudy,0,2013-06-18 11:35:00
7:15 AM,65.3,57.2,75,30.02,10.0,West,4.6,-,N/A,,Overcast,260,2013-06-18 12:15:00
7:55 AM,68.0,56.8,67,30.02,10.0,West,6.9,-,N/A,,Clear,280,2013-06-18 12:55:00
8:35 AM,71.6,56.8,60,30.04,10.0,NNW,9.2,-,N/A,,Clear,330,2013-06-18 13:35:00
8:55 AM,72.0,55.8,57,30.04,10.0,NW,6.9,-,N/A,,Clear,310,2013-06-18 13:55:00
9:15 AM,73.2,56.1,55,30.03,10.0,NW,8.1,-,N/A,,Clear,320,2013-06-18 14:15:00
9:35 AM,74.3,56.1,53,30.04,10.0,NW,6.9,-,N/A,,Clear,310,2013-06-18 14:35:00
9:55 AM,75.2,56.7,52,30.04,10.0,NNW,8.1,-,N/A,,Clear,330,2013-06-18 14:55:00
10:15 AM,75.9,56.3,50,30.04,10.0,NNW,9.2,-,N/A,,Clear,330,2013-06-18 15:15:00
10:35 AM,77.0,56.5,49,30.04,10.0,WNW,6.9,-,N/A,,Clear,300,2013-06-18 15:35:00
11:15 AM,78.8,52.9,40,30.03,10.0,North,8.1,-,N/A,,Clear,360,2013-06-18 16:15:00
11:35 AM,79.9,52.0,38,30.03,10.0,NW,9.2,-,N/A,,Clear,310,2013-06-18 16:35:00
11:55 AM,80.2,47.7,32,30.03,10.0,NNW,6.9,-,N/A,,Scattered Clouds,330,2013-06-18 16:55:00
12:15 PM,80.1,50.4,35,30.03,10.0,North,9.2,-,N/A,,Clear,350,2013-06-18 17:15:00
12:35 PM,80.6,50.4,35,30.03,10.0,North,8.1,-,N/A,,Clear,360,2013-06-18 17:35:00
12:55 PM,81.5,48.0,31,30.03,10.0,NW,9.2,-,N/A,,Clear,320,2013-06-18 17:55:00
1:15 PM,82.4,49.3,31,30.02,10.0,NW,10.4,-,N/A,,Scattered Clouds,320,2013-06-18 18:15:00
1:35 PM,81.1,48.7,32,30.02,10.0,NE,5.8,-,N/A,,Scattered Clouds,40,2013-06-18 18:35:00
1:55 PM,82.4,48.4,30,30.01,10.0,WNW,5.8,-,N/A,,Scattered Clouds,290,2013-06-18 18:55:00
2:15 PM,81.3,48.4,32,30.01,10.0,North,4.6,-,N/A,,Mostly Cloudy,10,2013-06-18 19:15:00
2:35 PM,82.4,47.3,29,30.01,10.0,North,5.8,-,N/A,,Mostly Cloudy,360,2013-06-18 19:35:00
2:55 PM,82.8,47.7,29,30.01,10.0,NNW,5.8,-,N/A,,Scattered Clouds,330,2013-06-18 19:55:00
3:15 PM,82.4,46.6,28,30.01,10.0,North,4.6,-,N/A,,Clear,360,2013-06-18 20:15:00
3:35 PM,81.9,46.9,29,30.00,10.0,North,5.8,-,N/A,,Scattered Clouds,350,2013-06-18 20:35:00
3:55 PM,82.0,45.1,27,30.00,10.0,Calm,Calm,-,N/A,,Scattered Clouds,0,2013-06-18 20:55:00
4:15 PM,80.8,46.9,30,30.00,10.0,North,3.5,-,N/A,,Scattered Clouds,10,2013-06-18 21:15:00
4:35 PM,81.5,46.6,29,29.99,10.0,NNW,4.6,-,N/A,,Clear,330,2013-06-18 21:35:00
4:55 PM,82.6,46.2,28,29.99,10.0,NW,3.5,-,N/A,,Clear,310,2013-06-18 21:55:00
5:15 PM,83.3,46.4,27,29.99,10.0,NW,4.6,-,N/A,,Clear,310,2013-06-18 22:15:00
5:35 PM,83.5,45.5,26,29.98,10.0,NW,3.5,-,N/A,,Mostly Cloudy,320,2013-06-18 22:35:00
5:55 PM,83.3,45.3,26,29.98,10.0,NNE,4.6,-,N/A,,Overcast,30,2013-06-18 22:55:00
6:15 PM,82.9,46.8,28,29.97,10.0,NE,5.8,-,N/A,,Mostly Cloudy,50,2013-06-18 23:15:00
6:35 PM,82.8,45.5,27,29.97,10.0,NE,5.8,-,N/A,,Scattered Clouds,50,2013-06-18 23:35:00
6:55 PM,82.4,46.8,29,29.97,10.0,North,4.6,-,N/A,,Clear,10,2013-06-18 23:55:00
7:15 PM,81.5,50.5,34,29.98,10.0,NE,5.8,-,N/A,,Clear,50,2013-06-19 00:15:00
7:35 PM,80.8,50.0,34,29.98,10.0,ENE,4.6,-,N/A,,Clear,60,2013-06-19 00:35:00
7:55 PM,80.2,51.4,37,29.98,10.0,ENE,4.6,-,N/A,,Clear,60,2013-06-19 00:55:00
8:15 PM,79.2,51.8,38,29.98,10.0,East,4.6,-,N/A,,Clear,80,2013-06-19 01:15:00
8:35 PM,77.7,53.6,43,29.98,10.0,East,6.9,-,N/A,,Clear,100,2013-06-19 01:35:00
8:55 PM,75.9,54.7,48,29.99,10.0,East,4.6,-,N/A,,Clear,90,2013-06-19 01:55:00
9:15 PM,74.7,55.2,51,29.99,10.0,East,4.6,-,N/A,,Clear,80,2013-06-19 02:15:00
9:35 PM,73.8,56.3,54,30.00,10.0,East,4.6,-,N/A,,Clear,90,2013-06-19 02:35:00
9:55 PM,73.0,56.3,56,30.00,10.0,East,4.6,-,N/A,,Clear,80,2013-06-19 02:55:00
10:15 PM,73.4,55.9,54,30.00,10.0,East,5.8,-,N/A,,Clear,80,2013-06-19 03:15:00
10:35 PM,72.5,56.1,56,30.01,10.0,East,5.8,-,N/A,,Clear,80,2013-06-19 03:35:00
10:55 PM,71.2,56.8,60,30.00,10.0,East,5.8,-,N/A,,Clear,90,2013-06-19 03:55:00
11:15 PM,70.2,56.7,62,30.01,10.0,ESE,5.8,-,N/A,,Clear,110,2013-06-19 04:15:00
11:35 PM,69.4,57.2,65,30.01,10.0,ESE,6.9,-,N/A,,Clear,110,2013-06-19 04:35:00